This is the latest recevied weather packets stored in our database for station/object N1JOV-7. If no packets are shown the sender has not sent any weather packets the latest 10 day(s).
| Time | Temp. | Humidity | Pressure | Rain* | Wind** | Luminosity | Snow |
|---|---|---|---|---|---|---|---|
| 1788446461 | 16.11° C | 99% | 1016.4 hPa | 0 mm | - | - | - |
| 1788445862 | 16.11° C | 99% | 1016.6 hPa | 0 mm | - | - | - |
| 1788445262 | 16.11° C | 99% | 1016.5 hPa | 0 mm | - | - | - |
| 1788444662 | 16.11° C | 99% | 1016.6 hPa | 0 mm | - | - | - |
| 1788444061 | 16.11° C | 99% | 1016.7 hPa | 0 mm | - | - | - |
| 1788443461 | 16.11° C | 99% | 1016.7 hPa | 0 mm | - | - | - |
| 1788442861 | 16.11° C | 99% | 1016.7 hPa | 0 mm | - | - | - |
| 1788442261 | 16.11° C | 99% | 1016.9 hPa | 0 mm | - | - | - |
| 1788441661 | 16.11° C | 99% | 1016.9 hPa | 0 mm | - | - | - |
| 1788441061 | 16.11° C | 99% | 1016.9 hPa | 0 mm | - | - | - |
| 1788440461 | 16.11° C | 99% | 1016.9 hPa | 0.76 mm | - | - | - |
| 1788439862 | 16.67° C | 99% | 1016.9 hPa | 1.27 mm | - | - | - |
| 1788439262 | 16.67° C | 99% | 1017.2 hPa | 0.76 mm | - | - | - |
| 1788438662 | 16.11° C | 99% | 1017.2 hPa | 0 mm | - | - | - |
| 1788438061 | 16.11° C | 99% | 1017.2 hPa | 0.76 mm | - | - | - |
| 1788437461 | 16.11° C | 99% | 1017.2 hPa | 1.27 mm | - | - | - |
| 1788436861 | 16.11° C | 99% | 1017.3 hPa | 0 mm | - | - | - |
| 1788436261 | 16.11° C | 99% | 1017 hPa | 0 mm | - | - | - |
| 1788435661 | 16.11° C | 99% | 1017 hPa | 0 mm | - | - | - |
| 1788435061 | 16.11° C | 99% | 1017.2 hPa | 0 mm | - | - | - |
| 1788434461 | 16.11° C | 99% | 1017.2 hPa | 0 mm | - | - | - |
| 1788433862 | 16.11° C | 99% | 1017.2 hPa | 0 mm | - | - | - |
| 1788433262 | 16.11° C | 99% | 1017.2 hPa | 0 mm | - | - | - |
| 1788432661 | 16.11° C | 99% | 1017.2 hPa | 0 mm | - | - | - |
| 1788432061 | 16.11° C | 99% | 1017.4 hPa | 0 mm | - | - | - |
* Rain latest hour (hover to see other rain measurements)
** Current wind speed in m/s (hover to see current wind gust speed)